This demonstration page uses our WeatherBlox Daily Observations layout. Learn more.

Hourly Observations for August 19, 2017

Temp ( °F °C ) Dew Point ( °F °C ) Humidity (%) Winds ( mph kmh ) Pressure ( in mb ) Visibility ( mi km ) Precip ( " mm )
12:54 am 00:54 Clear 68 20 65 18.3 90 90 Calm 29.94 1014 10 16.0934 0 0
1:54 am 01:54 Clear 67 19.4 65 18.3 93 93 N 3 6 29.94 1014 10 16.0934 0 0
2:54 am 02:54 Clear 69 20.6 63 17.2 81 81 Calm 29.94 1014 10 16.0934 0 0
3:54 am 03:54 Clear 67 19.4 61 16.1 81 81 Calm 29.93 1014 10 16.0934 0 0
4:54 am 04:54 Clear 62 16.7 59 15 90 90 N 3 6 29.94 1014 10 16.0934 0 0
5:54 am 05:54 Clear 60 15.6 58 14.4 93 93 N 3 6 29.95 1014 10 16.0934 0 0
6:54 am 06:54 Sunny 59 15 56 13.3 90 90 N 6 9 29.97 1015 10 16.0934 0 0
7:54 am 07:54 Sunny 64 17.8 59 15 84 84 Calm 29.97 1015 10 16.0934 0 0
8:54 am 08:54 Sunny 68 20 62 16.7 81 81 N 5 7 29.96 1015 10 16.0934 0 0
9:54 am 09:54 Sunny 72 22.2 61 16.1 68 68 E 6 9 29.96 1015 10 16.0934 0 0
10:54 am 10:54 Sunny 76 24.4 60 15.6 58 58 ENE 6 9 29.96 1015 10 16.0934 0 0
11:54 am 11:54 Sunny 80 26.7 59 15 49 49 E 6 9 29.96 1014 10 16.0934 0 0
12:54 pm 12:54 Sunny 82 27.8 63 17.2 53 53 S 5 7 29.94 1014 10 16.0934 0 0
1:54 pm 13:54 Sunny 85 29.4 63 17.2 48 48 SSE 9 15 29.92 1013 10 16.0934 0 0
2:54 pm 14:54 Sunny 86 30 63 17.2 46 46 SE 12 19 29.89 1012 10 16.0934 0 0
3:54 pm 15:54 Sunny 85 29.4 64 17.8 50 50 SE 13 20 29.87 1012 10 16.0934 0 0
4:54 pm 16:54 Sunny 87 30.6 65 18.3 48 48 ESE 12 19 29.86 1011 10 16.0934 0 0
5:54 pm 17:54 Sunny 87 30.6 66 18.9 50 50 ESE 13 20 29.84 1010 10 16.0934 0 0
6:54 pm 18:54 Sunny 85 29.4 66 18.9 53 53 ESE 12 19 29.83 1010 10 16.0934 0 0
7:54 pm 19:54 Sunny 82 27.8 65 18.3 56 56 SE 12 19 29.82 1010 10 16.0934 0 0
8:54 pm 20:54 Clear 80 26.7 66 18.9 62 62 SE 12 19 29.83 1010 10 16.0934 0 0
9:54 pm 21:54 Clear 80 26.7 66 18.9 62 62 SE 10 17 29.83 1010 10 16.0934 0 0
10:54 pm 22:54 Clear 81 27.2 66 18.9 61 61 SSE 15 24 29.8 1009 10 16.0934 0 0
11:54 pm 23:54 Clear 80 26.7 70 21.1 71 71 S 12 19 29.78 1008 10 16.0934 0 0

Powered by AerisWeather